Vertical_Velocity
-2 -2 -4 -3 6 -4 -16 -2 -1 -6 -4 5 1 -3 -2 0 -2 1 -7 -8 -4 -3 -1 -2 -2 -3 1 -0 -1 2 -0 -0 -1 -3 -2 -2 -1 -1 -0 -1 -3 -1 -1 -1 0 0 -1 -1 -1
0 -1 -2 -9 -2 5 22 5 3 -0 -2 -1 -0 -3 0 0 -3 -4 -3 -6 6 -3 -2 -2 -2 -0 -1 -2 -2 1 -0 -1 -1 -3 -3 -2 -1 -2 -2 -3 -2 -1 -2 -0 -0 -2 -0 -1 -1
0 -0 -4 2 -8 7 14 2 -3 4 3 -2 -4 1 -2 -2 1 -0 -3 -4 8 -3 1 -2 -1 -2 -2 -2 -1 -2 1 -0 -1 -1 -2 -3 -2 -2 -2 -2 -2 -2 -1 -2 -0 -0 -1 -1 -1
-3 3 -5 2 37 4 5 3 -8 -2 -1 1 3 -3 6 -0 -2 1 2 -1 1 -1 0 1 -2 -3 -3 -5 -2 -3 -0 0 1 -2 -3 -1 -1 -1 -2 -1 -1 -2 -1 -2 -1 -1 -0 -0 -1
0 -3 -4 -6 8 2 -1 1 -2 -5 -1 -5 0 -5 0 -2 1 2 -1 -1 -1 -1 -3 -1 -3 -4 -5 -4 -3 -2 -3 -4 -2 -3 -2 -2 -3 -3 -3 -3 -2 -2 -3 -2 -2 -2 -2 -1 -1
1 -0 -14 -7 16 -1 -7 -2 1 -6 6 -6 -5 2 -1 -1 -0 -0 3 2 -1 -0 -2 -3 -2 -2 -4 -4 -4 -3 -2 -0 -1 -3 -3 -3 -3 -2 -2 -2 -3 -3 -3 -2 -2 -1 -3 -2 -2
-4 5 -11 8 8 -2 -7 0 -3 -2 -5 12 -1 25 2 -0 -1 1 -1 -0 -2 -1 2 -2 -3 -2 -2 -1 -1 -3 -1 -2 0 -1 -1 0 -0 -3 -2 -1 -0 -2 -2 -2 -2 -1 -1 -1 -1
2 -3 -4 5 22 0 -3 -2 0 -4 3 -6 -0 -20 -4 2 1 -1 -1 -1 2 3 -2 -1 0 -1 -3 -1 -1 -1 -3 -3 -2 -2 -2 -2 -3 -1 -1 -3 -3 -3 -2 -2 -2 -2 -3 -1 -0
-5 1 -8 6 -1 0 -7 -0 -6 1 -1 -0 -7 -2 -7 -6 -2 2 -2 -1 -1 1 4 -1 -2 2 0 -1 -1 -1 -3 -2 -1 -1 -1 -1 -1 -2 -3 -1 0 -1 -2 -2 -3 -3 -2 -3 -2
-0 -5 -9 -2 1 -5 1 -1 -0 -3 -2 -2 -7 4 1 -4 -4 -3 2 2 -1 1 1 1 -1 -3 -4 -3 -1 -1 -1 1 0 -0 -1 -1 -1 -1 -2 -2 -1 -1 -1 -1 -1 -1 -1 -1 -3
-1 2 -5 -1 -8 -1 1 1 0 1 2 -1 11 -3 -7 -1 0 -3 -5 0 2 -2 -2 -0 1 1 0 -0 1 -1 -2 -1 -1 -1 -1 0 -0 -0 -1 -1 -1 -1 1 -1 -1 1 -0 -1 -0
3 1 2 -3 -1 -1 1 -1 -1 2 3 -2 -8 6 -12 5 -1 -1 -3 -5 -7 -1 -0 -1 -1 -3 -1 -2 0 -2 -0 -2 -1 1 0 -1 0 -1 -0 4 -3 -0 -0 -2 -1 -0 0 2 -1
1 1 2 -0 -1 -2 -3 -2 -3 -1 2 1 -2 -5 3 -11 -0 -1 -3 -4 -4 -3 0 -2 2 1 -1 2 -0 -1 -0 2 -1 -2 -3 -1 -2 2 -1 -1 2 2 -1 -1 -2 -0 -1 -3 -0
-1 -1 -1 1 4 2 -0 2 -5 -1 -0 2 1 2 -5 -4 1 -2 1 0 -5 -6 0 -1 -1 1 4 -0 -0 -0 1 -0 -1 1 3 -1 0 -2 0 -2 1 1 2 -1 2 -3 -0 2 2
-1 1 -0 -2 -0 1 1 -0 -5 -3 0 1 1 5 4 1 -2 -5 -2 -4 3 -6 -4 3 -1 1 -2 -2 1 0 -2 -2 2 -1 2 4 -3 1 -0 1 0 2 -1 1 1 3 1 -1 0
-1 -4 0 -3 -0 -4 -1 2 -3 -1 -4 3 0 4 4 2 -0 0 -2 -3 -5 0 -13 7 -4 -0 -0 0 -2 -0 1 0 -3 3 -3 2 1 -3 1 0 1 -3 1 0 -1 -1 0 0 0
-1 3 1 1 -11 2 -3 4 0 -5 -2 -1 -4 -2 0 1 -1 -4 -3 -1 -2 -1 -4 -9 13 -3 -1 -2 -2 -1 -1 4 3 -2 3 -0 2 1 -3 1 -1 3 0 0 0 3 -1 2 0
6 -1 2 7 9 -6 -1 -1 6 -6 -2 -1 -3 -4 -2 0 4 -1 1 3 1 1 -1 -7 1 3 -1 -1 -4 0 2 2 1 1 -2 -1 5 2 2 -1 1 -3 1 1 -1 0 0 1 -1
1 5 1 -8 -4 -2 -7 -0 -3 7 -3 3 -2 -2 -2 3 3 -0 -0 1 0 1 1 -11 -1 -3 -4 1 0 -6 -2 -3 1 1 1 1 -5 2 1 2 -0 1 0 -2 0 0 1 -0 1
1 -1 2 1 3 -2 -0 2 0 -2 1 -1 2 -2 -1 -2 2 2 -1 1 -2 3 5 -2 -0 4 1 -3 -0 -0 -2 -2 -1 -1 3 -0 0 -2 -1 1 -1 1 0 -2 2 -1 1 2 2
1 -2 3 -9 9 -4 -2 -4 0 9 -1 -6 4 1 -1 1 -2 -1 2 -0 1 2 2 3 -8 2 3 1 -2 0 0 -1 -1 -3 1 1 0 -1 -0 -1 1 -1 -4 0 1 2 -1 -0 -3
-23 26 -1 -1 5 -11 8 -20 -4 -4 6 -8 6 -1 -1 -2 -1 -1 -0 -1 -0 3 -1 -2 3 -9 -0 2 2 2 -2 -2 -2 1 -1 1 3 4 -0 0 -2 -3 2 0 -1 -1 3 -3 1
-29 28 -3 -0 -7 -2 10 -8 7 -5 4 8 -8 -13 5 -2 -5 2 -3 0 -3 -2 -4 1 -1 2 -2 2 -1 1 -0 -0 -0 -1 -2 -3 -2 -0 -1 -1 0 17 -1 5 1 1 1 -3 -2
-2 7 -2 7 -2 -34 35 13 -29 3 0 -3 16 -2 -17 3 -2 1 0 5 5 4 2 8 -2 -5 -4 -5 -2 -3 1 -1 -1 -2 -2 -1 -1 -1 2 6 2 1 21 -2 -2 -4 -0 3 -2
6 6 1 -1 -7 -38 22 21 -58 7 -1 -3 22 -4 -8 1 2 -2 -5 -1 1 -0 -2 -0 3 0 -0 1 0 1 -0 -1 -2 -2 -1 0 2 0 -1 -4 -2 -2 1 3 3 2 -1 -4 -6
5 1 5 -16 3 -2 -11 -15 -25 3 7 2 2 -18 -3 -4 3 -2 -9 1 1 -3 -1 -2 -1 -2 -4 -3 -4 -2 0 1 1 1 -1 -2 -1 -1 -1 -2 0 2 -1 -1 -2 2 3 4 2
-17 -2 -4 5 -10 12 -25 -14 6 10 4 -4 -3 8 -2 -2 2 1 -8 -2 1 -1 1 -2 -0 1 1 0 0 -0 -1 -1 1 -1 0 1 0 -2 -1 -1 1 3 -3 0 -3 -1 2 -2 -0
-24 -8 17 -10 0 2 -23 -17 -16 -1 9 10 -16 9 -6 4 -3 0 -6 -4 -0 2 -1 -1 -1 -1 -2 -0 -2 2 -0 -1 2 4 2 2 2 -0 0 2 3 -1 6 4 -3 2 2 5 5
16 -4 9 24 20 1 -10 -35 -3 -4 17 9 -1 10 5 10 0 -12 -8 8 -5 2 2 0 0 4 3 6 5 5 3 2 1 1 2 0 2 2 0 0 2 5 9 6 3 0 1 0 -1
3 8 9 5 -13 -2 15 -51 24 3 14 3 3 4 7 0 2 -1 -5 4 -4 3 -2 2 2 -2 2 0 -0 2 3 2 4 2 -1 2 5 4 1 -4 -2 -2 2 1 8 9 -0 5 6
Height
5879 5881 5881 5882 5885 5878 5874 5888 5885 5879 5879 5879 5877 5876 5875 5872 5872 5873 5867 5866 5867 5868 5869 5871 5871 5872 5872 5874 5876 5876 5878 5878 5879 5879 5879 5881 5881 5882 5882 5882 5883 5883 5883 5883 5883 5883 5884 5884 5884
5880 5883 5884 5883 5884 5882 5884 5886 5882 5880 5878 5877 5876 5874 5873 5872 5869 5869 5868 5866 5870 5868 5869 5870 5871 5873 5873 5874 5876 5877 5878 5879 5879 5879 5879 5880 5881 5882 5883 5883 5883 5883 5884 5883 5883 5884 5884 5884 5884
5879 5881 5885 5882 5879 5885 5882 5885 5882 5881 5878 5876 5875 5874 5872 5871 5870 5869 5868 5867 5869 5868 5868 5869 5871 5873 5874 5875 5876 5877 5879 5879 5880 5881 5881 5881 5882 5882 5882 5883 5883 5884 5884 5883 5883 5884 5884 5884 5884
5883 5884 5884 5885 5888 5888 5887 5886 5883 5880 5877 5876 5876 5873 5873 5871 5870 5869 5868 5867 5868 5868 5868 5869 5871 5873 5874 5875 5876 5878 5879 5880 5881 5881 5882 5882 5882 5882 5882 5883 5883 5883 5884 5884 5883 5883 5883 5883 5883
5885 5885 5884 5885 5892 5889 5887 5886 5884 5881 5879 5877 5876 5872 5871 5869 5868 5867 5867 5866 5867 5868 5868 5869 5870 5872 5874 5876 5877 5878 5879 5880 5881 5882 5882 5882 5882 5882 5882 5882 5882 5882 5882 5883 5883 5882 5882 5882 5882
5884 5884 5879 5884 5890 5888 5886 5885 5883 5882 5880 5877 5876 5873 5871 5869 5868 5866 5865 5864 5865 5866 5867 5868 5871 5873 5875 5876 5877 5878 5879 5880 5881 5882 5882 5882 5882 5882 5882 5882 5882 5882 5882 5881 5881 5881 5880 5880 5880
5882 5884 5877 5886 5886 5886 5884 5883 5882 5881 5880 5880 5878 5874 5870 5869 5868 5867 5864 5863 5864 5865 5867 5868 5869 5872 5874 5876 5878 5878 5879 5880 5881 5882 5882 5882 5881 5881 5881 5881 5881 5881 5880 5880 5880 5879 5878 5878 5878
5881 5883 5882 5887 5890 5884 5881 5882 5881 5880 5880 5877 5877 5868 5869 5870 5868 5868 5866 5863 5863 5865 5866 5867 5868 5870 5873 5874 5876 5878 5879 5880 5881 5881 5881 5881 5881 5881 5881 5880 5880 5880 5879 5879 5879 5878 5877 5877 5876
5881 5882 5882 5889 5887 5881 5875 5879 5878 5879 5879 5878 5875 5873 5870 5868 5867 5867 5867 5865 5863 5864 5865 5867 5868 5870 5872 5874 5875 5876 5877 5878 5879 5879 5879 5879 5879 5880 5880 5879 5878 5878 5878 5877 5877 5877 5876 5875 5874
5881 5880 5878 5879 5879 5876 5876 5876 5876 5877 5877 5877 5874 5872 5870 5869 5868 5865 5864 5865 5864 5863 5864 5864 5866 5868 5871 5873 5875 5876 5877 5877 5877 5878 5878 5877 5877 5877 5877 5876 5876 5876 5876 5875 5875 5874 5874 5873 5872
5879 5879 5876 5875 5873 5874 5875 5875 5875 5874 5876 5878 5877 5871 5866 5867 5866 5865 5863 5862 5863 5862 5862 5863 5864 5867 5870 5872 5873 5875 5876 5876 5876 5876 5876 5875 5875 5874 5874 5873 5873 5872 5872 5871 5871 5870 5870 5869 5869
5876 5876 5876 5874 5873 5873 5873 5871 5872 5871 5872 5872 5871 5869 5865 5866 5864 5863 5863 5860 5860 5861 5861 5862 5863 5865 5867 5869 5870 5871 5872 5872 5873 5873 5872 5872 5871 5870 5870 5870 5869 5868 5868 5867 5866 5865 5864 5864 5863
5870 5873 5872 5873 5871 5871 5870 5871 5868 5866 5868 5868 5867 5865 5865 5863 5862 5860 5860 5859 5858 5858 5859 5860 5861 5862 5863 5864 5866 5867 5868 5868 5868 5869 5868 5868 5867 5866 5865 5864 5864 5863 5862 5861 5861 5860 5859 5857 5856
5868 5868 5869 5870 5869 5869 5869 5868 5866 5866 5862 5862 5863 5863 5862 5861 5860 5859 5858 5858 5856 5856 5857 5857 5858 5859 5859 5860 5861 5862 5863 5864 5864 5864 5863 5861 5861 5860 5859 5857 5857 5856 5857 5856 5855 5853 5853 5852 5850
5863 5864 5865 5865 5865 5865 5866 5865 5863 5862 5860 5860 5860 5860 5859 5857 5856 5855 5856 5855 5855 5852 5853 5855 5854 5855 5855 5855 5856 5856 5857 5857 5857 5857 5857 5855 5853 5853 5852 5851 5851 5850 5849 5849 5849 5848 5846 5845 5843
5860 5860 5860 5859 5860 5861 5862 5861 5859 5859 5858 5858 5856 5855 5855 5855 5854 5852 5852 5851 5850 5851 5847 5851 5852 5851 5851 5851 5851 5850 5851 5850 5850 5850 5848 5848 5847 5845 5845 5845 5844 5842 5843 5842 5841 5840 5839 5838 5836
5856 5857 5856 5857 5854 5856 5857 5858 5856 5855 5854 5854 5853 5851 5851 5850 5850 5849 5849 5848 5847 5846 5844 5845 5849 5848 5847 5847 5847 5847 5846 5845 5844 5842 5843 5842 5842 5841 5839 5839 5837 5837 5836 5836 5835 5834 5832 5831 5830
5851 5850 5853 5854 5855 5848 5850 5852 5853 5852 5851 5850 5849 5848 5847 5847 5846 5845 5845 5844 5844 5843 5841 5837 5845 5844 5841 5841 5841 5840 5839 5839 5838 5838 5836 5836 5836 5835 5834 5832 5832 5830 5830 5829 5827 5827 5826 5825 5823
5843 5842 5842 5842 5844 5842 5843 5844 5847 5847 5846 5847 5845 5844 5843 5843 5842 5841 5840 5840 5840 5839 5836 5832 5837 5838 5836 5836 5836 5836 5835 5832 5832 5832 5831 5831 5830 5829 5827 5825 5824 5824 5823 5822 5821 5820 5819 5818 5816
5832 5832 5833 5836 5838 5837 5834 5836 5841 5841 5841 5841 5842 5841 5840 5839 5838 5838 5836 5835 5835 5835 5834 5830 5830 5833 5832 5831 5830 5830 5829 5829 5827 5825 5825 5824 5823 5822 5822 5820 5819 5817 5816 5816 5814 5813 5811 5811 5809
5822 5823 5824 5827 5829 5828 5826 5828 5833 5837 5834 5835 5836 5836 5836 5836 5835 5834 5833 5832 5830 5830 5829 5828 5824 5826 5827 5825 5824 5824 5823 5823 5822 5821 5820 5819 5817 5816 5815 5814 5813 5811 5809 5809 5808 5806 5804 5802 5801
5810 5818 5816 5818 5818 5817 5823 5816 5824 5829 5830 5826 5829 5830 5830 5830 5829 5829 5828 5828 5827 5825 5824 5823 5821 5818 5819 5819 5818 5817 5816 5815 5815 5814 5813 5812 5812 5810 5808 5807 5805 5803 5801 5800 5798 5797 5796 5792 5792
5799 5805 5805 5806 5805 5808 5813 5810 5816 5821 5824 5825 5818 5819 5824 5823 5822 5823 5823 5822 5821 5821 5820 5819 5816 5814 5812 5812 5812 5811 5810 5809 5808 5807 5806 5804 5803 5802 5800 5799 5797 5794 5791 5790 5787 5784 5782 5781 5779
5793 5793 5793 5796 5797 5795 5804 5804 5809 5815 5817 5819 5820 5808 5814 5816 5816 5816 5816 5817 5816 5815 5814 5813 5811 5810 5808 5807 5807 5805 5804 5803 5801 5799 5798 5797 5795 5793 5792 5791 5789 5786 5783 5779 5777 5773 5770 5769 5766
5783 5783 5782 5783 5783 5783 5800 5796 5799 5808 5808 5811 5811 5802 5802 5809 5808 5808 5808 5809 5809 5809 5808 5807 5805 5804 5803 5801 5800 5799 5797 5795 5794 5793 5791 5790 5788 5785 5782 5779 5777 5777 5774 5770 5767 5762 5760 5757 5751
5773 5773 5773 5769 5773 5780 5787 5786 5792 5799 5799 5797 5800 5797 5795 5798 5799 5798 5799 5800 5801 5800 5800 5799 5798 5797 5796 5795 5794 5793 5791 5789 5788 5786 5783 5782 5779 5777 5774 5770 5766 5764 5762 5758 5753 5749 5748 5744 5740
5759 5756 5763 5762 5765 5763 5772 5777 5785 5789 5788 5790 5793 5793 5789 5789 5791 5790 5790 5792 5793 5792 5791 5790 5790 5790 5789 5788 5786 5785 5783 5782 5780 5777 5775 5773 5771 5768 5765 5761 5754 5750 5747 5744 5739 5736 5733 5729 5727
5731 5738 5744 5747 5747 5746 5754 5763 5771 5780 5782 5781 5780 5783 5781 5781 5780 5781 5782 5784 5784 5784 5783 5782 5781 5780 5780 5778 5777 5776 5774 5772 5770 5768 5766 5763 5760 5756 5753 5749 5743 5734 5729 5726 5723 5719 5719 5714 5712
5724 5725 5730 5731 5736 5735 5740 5745 5763 5768 5772 5773 5771 5770 5768 5771 5769 5769 5774 5776 5773 5775 5775 5774 5772 5772 5770 5769 5768 5767 5765 5763 5760 5758 5755 5752 5748 5744 5739 5735 5731 5725 5716 5710 5706 5704 5701 5699 5696
5706 5711 5716 5715 5718 5719 5726 5729 5747 5756 5763 5761 5762 5756 5759 5759 5758 5760 5763 5765 5763 5765 5764 5762 5761 5760 5759 5758 5756 5755 5754 5751 5748 5746 5743 5739 5734 5729 5723 5717 5712 5707 5701 5696 5690 5688 5685 5684 5681